CW3699 Weather Reports


time (UTC)temp
F
wind
direction
speed
knots
gust
knots
rain 1hr
in
rain 24hr
in
rain mn
in
humidity
%
barometer
mb
20260508014411 42 38 0.9 1.7 0.00 0.00 0.00 79 1011.4
20260508013410 42 81 0.0 1.7 0.00 0.00 0.00 78 1011.4
20260508012910 42 187 0.9 2.6 0.00 0.00 0.00 77 1011.3
20260508011409 42 179 0.9 2.6 0.00 0.00 0.00 75 1011.1
20260508010911 42 133 0.0 0.9 0.00 0.00 0.00 74 1011.1
20260508010412 42 161 0.0 0.9 0.00 0.00 0.00 73 1011.1
20260508005911 42 122 0.0 1.7 0.00 0.00 0.00 73 1011.0
20260508005411 43 275 0.0 0.9 0.00 0.00 0.00 73 1011.1
20260508004912 43 82 0.0 1.7 0.00 0.00 0.00 73 1010.9
20260508004411 43 223 0.0 0.9 0.00 0.00 0.00 74 1010.9
20260508003911 43 54 0.9 1.7 0.00 0.00 0.00 74 1010.9
20260508003411 43 179 0.9 1.7 0.00 0.00 0.00 75 1010.9
20260508002911 43 214 0.0 0.9 0.00 0.00 0.00 75 1010.9
20260508002410 43 240 0.0 1.7 0.00 0.00 0.00 76 1010.8
20260508001410 44 358 0.9 1.7 0.00 0.00 0.00 74 1010.7
20260508000911 44 354 0.9 1.7 0.00 0.00 0.00 75 1010.7
20260508000412 44 336 0.0 2.6 0.00 0.00 0.00 74 1010.7
20260507235910 44 268 0.9 2.6 0.00 0.00 0.00 73 1010.7
20260507235410 44 340 0.9 1.7 0.00 0.00 0.00 73 1010.7
20260507234912 44 319 0.9 1.7 0.00 0.00 0.00 73 1010.6
20260507234411 44 351 0.9 1.7 0.00 0.00 0.00 72 1010.6
20260507233912 44 16 0.9 1.7 0.00 0.00 0.00 71 1010.6
20260507233410 44 12 0.9 1.7 0.00 0.00 0.00 72 1010.6
20260507232911 44 2 0.9 1.7 0.00 0.00 0.00 72 1010.5
20260507232411 45 333 0.9 2.6 0.00 0.00 0.00 71 1010.6
20260507231910 45 343 0.9 2.6 0.00 0.00 0.00 73 1010.6
20260507231409 45 10 0.9 5.2 0.00 0.00 0.00 71 1010.6
20260507230911 45 34 0.9 1.7 0.00 0.00 0.00 73 1010.6
20260507230411 45 311 0.9 1.7 0.00 0.00 0.00 73 1010.6
20260507225409 45 344 0.9 2.6 0.00 0.00 0.00 72 1010.7
20260507224909 45 340 1.7 2.6 0.00 0.00 0.00 71 1010.7
20260507224411 45 346 0.9 2.6 0.00 0.00 0.00 70 1010.7
20260507223911 45 346 1.7 2.6 0.00 0.00 0.00 70 1010.7
20260507223411 45 334 1.7 2.6 0.00 0.00 0.00 70 1010.7
20260507222909 45 332 1.7 2.6 0.00 0.00 0.00 69 1010.7
20260507222411 45 338 1.7 2.6 0.00 0.00 0.00 67 1010.7
20260507221910 45 343 1.7 4.3 0.00 0.00 0.00 67 1010.7
20260507221409 46 339 1.7 4.3 0.00 0.00 0.00 66 1010.6
20260507220911 46 339 1.7 2.6 0.00 0.00 0.00 65 1010.6
20260507220411 46 359 1.7 4.3 0.00 0.00 0.00 66 1010.6
20260507215410 46 341 1.7 2.6 0.00 0.00 0.00 67 1010.6
20260507213910 46 342 1.7 4.3 0.00 0.00 0.00 66 1010.5
20260507213411 46 345 1.7 2.6 0.00 0.00 0.00 66 1010.5
20260507212911 46 337 1.7 2.6 0.00 0.00 0.00 65 1010.5
20260507211409 46 347 1.7 4.3 0.00 0.00 0.00 65 1010.5
20260507205911 46 328 1.7 2.6 0.00 0.00 0.00 63 1010.5
20260507205411 46 350 2.6 6.1 0.00 0.00 0.00 63 1010.5
20260507204913 47 358 1.7 7.0 0.00 0.00 0.00 62 1010.5
20260507204411 47 342 1.7 2.6 0.00 0.00 0.00 64 1010.5
20260507203910 47 343 1.7 2.6 0.00 0.00 0.00 63 1010.5
20260507202911 48 6 1.7 7.0 0.00 0.00 0.00 58 1010.4
20260507202411 48 357 1.7 5.2 0.00 0.00 0.00 54 1010.5
20260507201410 47 79 0.9 2.6 0.00 0.00 0.00 63 1010.5
20260507200910 47 21 1.7 2.6 0.00 0.00 0.00 61 1010.5
20260507200412 47 19 1.7 4.3 0.00 0.00 0.00 59 1010.5
20260507195910 47 88 1.7 6.1 0.00 0.00 0.00 61 1010.6
20260507195411 48 13 1.7 4.3 0.00 0.00 0.00 61 1010.6
20260507194911 48 3 1.7 5.2 0.00 0.00 0.00 61 1010.7
20260507194410 48 300 2.6 7.0 0.00 0.00 0.00 49 1010.6
20260507193910 48 310 3.5 7.0 0.00 0.00 0.00 50 1010.7
20260507193410 48 13 1.7 5.2 0.00 0.00 0.00 53 1010.7
20260507192910 48 338 2.6 7.8 0.00 0.00 0.00 53 1010.8
20260507192411 48 263 0.9 4.3 0.00 0.00 0.00 55 1010.9
20260507191910 47 233 4.3 14.8 0.00 0.00 0.00 55 1010.8
20260507190911 46 171 0.9 2.6 0.00 0.00 0.00 63 1011.1
20260507190410 46 9 1.7 4.3 0.00 0.00 0.00 67 1011.1
20260507185910 46 51 0.9 2.6 0.00 0.00 0.00 66 1011.1
20260507184911 46 9 1.7 4.3 0.00 0.00 0.00 67 1011.1
20260507184411 46 349 1.7 5.2 0.00 0.00 0.00 68 1011.1
20260507183910 46 0 1.7 2.6 0.00 0.00 0.00 69 1011.2
20260507183411 46 5 2.6 5.2 0.00 0.00 0.00 69 1011.2
20260507182911 45 6 1.7 6.1 0.00 0.00 0.00 70 1011.3
20260507182409 45 356 3.5 6.1 0.00 0.00 0.00 70 1011.4
20260507181911 46 358 2.6 6.1 0.00 0.00 0.00 71 1011.4
20260507180910 46 356 3.5 7.0 0.00 0.00 0.00 69 1011.4
20260507180413 46 0 2.6 7.8 0.00 0.00 0.00 68 1011.5
20260507175911 46 15 2.6 5.2 0.00 0.00 0.00 69 1011.6
20260507175411 46 3 1.7 4.3 0.00 0.00 0.00 69 1011.7
20260507174910 46 20 2.6 6.1 0.00 0.00 0.00 68 1011.7
20260507174411 46 50 1.7 2.6 0.00 0.00 0.00 67 1011.8
20260507173411 46 18 1.7 4.3 0.00 0.00 0.00 68 1011.9
20260507172910 46 12 1.7 5.2 0.00 0.00 0.00 69 1011.9
20260507172410 45 328 1.7 6.1 0.00 0.00 0.00 68 1012.0
20260507171910 44 281 0.9 6.1 0.00 0.00 0.00 69 1012.0
20260507164910 44 22 0.9 2.6 0.00 0.00 0.00 72 1012.3
20260507164410 44 4 1.7 2.6 0.00 0.00 0.00 72 1012.4
20260507163909 43 356 0.9 2.6 0.00 0.00 0.00 72 1012.4
20260507163412 43 32 1.7 4.3 0.00 0.00 0.00 73 1012.5
20260507162910 43 319 1.7 2.6 0.00 0.00 0.00 75 1012.5
20260507162410 43 42 0.9 2.6 0.00 0.00 0.00 75 1012.5
20260507161910 43 346 0.9 2.6 0.00 0.00 0.00 71 1012.5
20260507161410 43 338 0.9 5.2 0.00 0.00 0.00 71 1012.6
20260507160910 43 22 1.7 2.6 0.00 0.00 0.00 72 1012.6
20260507160410 44 25 1.7 2.6 0.00 0.00 0.00 70 1012.7
20260507155911 44 345 0.9 4.3 0.00 0.00 0.00 68 1012.6
20260507155410 44 336 2.6 5.2 0.00 0.00 0.00 67 1012.7
20260507154909 44 352 2.6 5.2 0.00 0.00 0.00 66 1012.7
20260507154410 45 349 2.6 5.2 0.00 0.00 0.00 66 1012.6
20260507153911 45 346 3.5 6.1 0.00 0.00 0.00 65 1012.7
20260507153410 45 345 2.6 5.2 0.00 0.00 0.00 66 1012.7
20260507152910 45 349 2.6 5.2 0.00 0.00 0.00 65 1012.7
20260507152410 45 280 1.7 4.3 0.00 0.00 0.00 65 1012.7
20260507151910 44 341 0.9 2.6 0.00 0.00 0.00 65 1012.7
20260507151410 44 28 0.9 4.3 0.00 0.00 0.00 67 1012.7
20260507150910 44 9 1.7 4.3 0.00 0.00 0.00 67 1012.7
20260507150410 44 316 1.7 4.3 0.00 0.00 0.00 66 1012.7
20260507145910 44 20 0.9 2.6 0.00 0.00 0.00 67 1012.7
20260507145409 44 345 1.7 2.6 0.00 0.00 0.00 66 1012.7
20260507144911 44 14 1.7 4.3 0.00 0.00 0.00 64 1012.6
20260507144410 44 353 1.7 2.6 0.00 0.00 0.00 65 1012.6
20260507143910 44 321 0.9 2.6 0.00 0.00 0.00 64 1012.6
20260507143410 44 253 1.7 5.2 0.00 0.00 0.00 62 1012.6
20260507142909 44 239 0.9 2.6 0.00 0.00 0.00 64 1012.7
20260507142410 44 242 1.7 6.1 0.00 0.00 0.00 65 1012.7
20260507141910 43 41 1.7 2.6 0.00 0.00 0.00 66 1012.7
20260507141409 43 246 1.7 6.1 0.00 0.00 0.00 66 1012.8
20260507140411 43 19 2.6 6.1 0.00 0.00 0.00 66 1012.8
20260507135910 43 254 1.7 5.2 0.00 0.00 0.00 68 1012.8
20260507134910 43 261 1.7 5.2 0.00 0.00 0.00 70 1012.8
20260507134410 42 326 1.7 4.3 0.00 0.00 0.00 72 1012.8
20260507133910 42 206 0.9 2.6 0.00 0.00 0.00 72 1012.7
20260507133409 42 267 0.9 5.2 0.00 0.00 0.00 73 1012.7
20260507132909 42 294 0.9 2.6 0.00 0.00 0.00 74 1012.8
20260507132410 41 175 1.7 5.2 0.00 0.00 0.00 73 1012.8
20260507131915 41 229 1.7 5.2 0.00 0.00 0.00 74 1012.7
20260507130910 41 174 2.6 6.1 0.00 0.00 0.00 76 1012.7
20260507130410 41 266 1.7 4.3 0.00 0.00 0.00 78 1012.8
20260507125909 40 143 1.7 7.0 0.00 0.00 0.00 77 1012.7
20260507125409 40 223 3.5 6.1 0.00 0.00 0.00 78 1012.7
20260507124910 40 220 0.9 4.3 0.00 0.00 0.00 79 1012.7
20260507124409 39 220 1.7 6.1 0.00 0.00 0.00 80 1012.6
20260507123909 39 153 2.6 4.3 0.00 0.00 0.00 82 1012.6
20260507123409 38 208 1.7 4.3 0.00 0.00 0.00 84 1012.6
20260507122910 38 267 0.9 2.6 0.00 0.00 0.00 85 1012.6
20260507120910 35 244 1.7 2.6 0.00 0.00 0.00 92 1012.5
20260507120410 35 225 1.7 2.6 0.00 0.00 0.00 92 1012.5
20260507115909 34 191 1.7 2.6 0.00 0.00 0.00 93 1012.5
20260507115410 33 236 1.7 2.6 0.00 0.00 0.00 93 1012.5
20260507114910 33 167 0.9 2.6 0.00 0.00 0.00 93 1012.5
20260507114409 32 185 1.7 2.6 0.00 0.00 0.00 93 1012.4
20260507113910 32 173 0.9 2.6 0.00 0.00 0.00 93 1012.4
20260507113410 32 185 0.9 2.6 0.00 0.00 0.00 92 1012.4
20260507112910 31 192 0.9 2.6 0.00 0.00 0.00 92 1012.4
20260507112410 31 167 0.9 2.6 0.00 0.00 0.00 93 1012.4
20260507111910 31 163 0.9 1.7 0.00 0.00 0.00 93 1012.3
20260507111410 30 179 0.9 2.6 0.00 0.00 0.00 93 1012.3
20260507110910 30 175 1.7 2.6 0.00 0.00 0.00 93 1012.3
20260507110410 30 192 1.7 2.6 0.00 0.00 0.00 92 1012.3
20260507104909 29 165 1.7 2.6 0.00 0.00 0.00 91 1012.3
20260507104410 29 180 1.7 2.6 0.00 0.00 0.00 92 1012.2
20260507103910 29 164 1.7 2.6 0.00 0.00 0.00 91 1012.3
20260507103410 29 166 1.7 2.6 0.00 0.00 0.00 91 1012.2
20260507102910 29 166 1.7 2.6 0.00 0.00 0.00 91 1012.3
20260507102410 29 185 1.7 2.6 0.00 0.00 0.00 91 1012.3
20260507101409 30 175 1.7 2.6 0.00 0.00 0.00 90 1012.2
20260507100909 30 193 0.9 2.6 0.00 0.00 0.00 90 1012.3
20260507100409 30 187 1.7 2.6 0.00 0.00 0.00 90 1012.2
20260507095910 30 176 1.7 2.6 0.00 0.00 0.00 90 1012.3
20260507095410 30 174 1.7 2.6 0.00 0.00 0.00 90 1012.3
20260507094909 30 164 1.7 2.6 0.00 0.00 0.00 89 1012.4
20260507093909 31 167 0.9 1.7 0.00 0.00 0.00 89 1012.4
20260507093410 31 176 1.7 2.6 0.00 0.00 0.00 89 1012.3
20260507092910 31 166 1.7 1.7 0.00 0.00 0.00 89 1012.3
20260507092409 31 169 0.9 1.7 0.00 0.00 0.00 90 1012.4
20260507091910 31 164 0.9 1.7 0.00 0.00 0.00 90 1012.5
20260507091409 32 187 0.9 1.7 0.00 0.00 0.00 90 1012.4
20260507090910 32 176 0.9 1.7 0.00 0.00 0.00 90 1012.5
20260507090409 32 173 0.9 1.7 0.00 0.00 0.00 90 1012.5
20260507085910 32 194 0.9 1.7 0.00 0.00 0.00 90 1012.5
20260507085410 32 163 0.9 1.7 0.00 0.00 0.00 91 1012.6
20260507084909 32 153 0.9 1.7 0.00 0.00 0.00 91 1012.6
20260507084410 31 166 0.9 1.7 0.00 0.00 0.00 91 1012.7
20260507083910 31 167 0.9 1.7 0.00 0.00 0.00 91 1012.6
20260507083410 31 172 0.9 2.6 0.00 0.00 0.00 91 1012.6
20260507082910 31 178 0.9 1.7 0.00 0.00 0.00 90 1012.6
20260507082410 31 161 0.9 1.7 0.00 0.00 0.00 90 1012.7
20260507081909 31 188 0.9 1.7 0.00 0.00 0.00 90 1012.8
20260507081409 31 184 0.9 1.7 0.00 0.00 0.00 90 1012.7
20260507080909 31 167 0.9 1.7 0.00 0.00 0.00 90 1012.8
20260507080410 31 164 0.9 1.7 0.00 0.00 0.00 90 1012.7
20260507075909 31 178 0.9 1.7 0.00 0.00 0.00 90 1012.7
20260507075409 31 161 1.7 1.7 0.00 0.00 0.00 89 1012.7
20260507074909 31 167 0.9 2.6 0.00 0.00 0.00 89 1012.8
20260507074410 31 181 0.9 2.6 0.00 0.00 0.00 88 1012.8
20260507073909 31 176 1.7 2.6 0.00 0.00 0.00 88 1012.9
20260507073409 31 184 0.9 2.6 0.00 0.00 0.00 87 1012.9
20260507072909 31 175 1.7 2.6 0.00 0.00 0.00 87 1012.9
20260507072409 31 179 1.7 2.6 0.00 0.00 0.00 87 1012.9
20260507071909 31 174 0.9 1.7 0.00 0.00 0.00 87 1012.9
20260507071409 32 175 0.9 1.7 0.00 0.00 0.00 86 1013.0
20260507070909 32 164 0.9 1.7 0.00 0.00 0.00 86 1013.0
20260507070409 32 164 0.9 1.7 0.00 0.00 0.00 86 1013.1
20260507065410 32 162 0.9 2.6 0.00 0.00 0.00 85 1013.2
20260507064909 33 187 0.9 2.6 0.00 0.00 0.00 84 1013.1
20260507063910 33 172 0.9 2.6 0.00 0.00 0.00 84 1013.2
20260507063410 33 155 1.7 2.6 0.00 0.00 0.00 83 1013.2
20260507062410 34 166 0.9 1.7 0.00 0.00 0.00 83 1013.2
20260507061909 34 173 0.9 1.7 0.00 0.00 0.00 82 1013.2
20260507061408 34 172 0.9 2.6 0.00 0.00 0.00 81 1013.2
20260507060910 35 172 0.9 1.7 0.00 0.00 0.00 81 1013.3
20260507060410 35 188 1.7 2.6 0.00 0.00 0.00 81 1013.3
20260507055911 35 177 1.7 2.6 0.00 0.00 0.00 80 1013.3
20260507055410 36 176 0.9 2.6 0.00 0.00 0.00 80 1013.3
20260507054909 36 171 0.9 2.6 0.00 0.00 0.00 79 1013.3
20260507053909 37 159 1.7 2.6 0.00 0.00 0.00 77 1013.3
20260507053409 37 168 0.9 2.6 0.00 0.00 0.00 77 1013.4
20260507052910 37 177 0.9 2.6 0.00 0.00 0.00 77 1013.4
20260507051409 38 168 0.9 2.6 0.00 0.00 0.00 76 1013.5
20260507050909 38 197 0.9 2.6 0.00 0.00 0.00 76 1013.6
20260507045909 38 209 0.9 2.6 0.00 0.00 0.00 75 1013.6
20260507045409 39 184 0.9 2.6 0.00 0.00 0.00 75 1013.6
20260507044909 39 179 0.9 2.6 0.00 0.00 0.00 75 1013.6
20260507043910 39 162 1.7 7.0 0.00 0.00 0.00 76 1013.6
20260507043410 39 203 0.9 5.2 0.00 0.00 0.00 76 1013.7
20260507042909 39 6 0.9 2.6 0.00 0.00 0.00 76 1013.7
20260507042409 40 174 0.9 2.6 0.00 0.00 0.00 77 1013.8
20260507041910 40 268 1.7 4.3 0.00 0.00 0.00 77 1013.7
20260507040909 39 353 1.7 5.2 0.00 0.00 0.00 77 1013.7
20260507040409 39 302 1.7 2.6 0.00 0.00 0.00 77 1013.7
20260507035910 39 259 1.7 4.3 0.00 0.00 0.00 79 1013.7
20260507035410 39 239 0.9 2.6 0.00 0.00 0.00 78 1013.7
20260507034909 39 277 0.9 2.6 0.00 0.00 0.00 78 1013.7
20260507034410 39 277 0.9 1.7 0.00 0.00 0.00 76 1013.9
20260507033909 39 314 0.9 2.6 0.00 0.00 0.00 75 1013.9
20260507033409 39 272 1.7 2.6 0.00 0.00 0.00 74 1013.8
20260507031909 39 264 0.9 2.6 0.00 0.00 0.00 72 1013.7
20260507031409 40 270 0.9 2.6 0.00 0.00 0.00 72 1013.6
20260507030909 40 295 1.7 4.3 0.00 0.00 0.00 71 1013.6
20260507030409 40 105 0.9 2.6 0.00 0.00 0.00 71 1013.7
20260507025909 40 357 0.9 7.0 0.00 0.00 0.00 71 1013.7
20260507025409 40 270 0.9 2.6 0.00 0.00 0.00 72 1013.7
20260507024909 40 254 1.7 4.3 0.00 0.00 0.00 72 1013.6
20260507024410 41 298 0.9 4.3 0.00 0.00 0.00 73 1013.6
20260507023909 41 0 1.7 2.6 0.00 0.00 0.00 71 1013.7
20260507023408 41 48 1.7 2.6 0.00 0.00 0.00 70 1013.7
20260507021409 41 282 0.9 6.1 0.00 0.00 0.00 70 1013.6
20260507020909 41 354 1.7 5.2 0.00 0.00 0.00 70 1013.6
20260507020410 41 244 0.9 4.3 0.00 0.00 0.00 70 1013.5
20260507015909 41 4 0.9 2.6 0.00 0.00 0.00 69 1013.6